Terminal Aerodrome Forecast
Issued by NWS Mt. Holly, NJ

Home | Current Version | Previous Version | Text Only | Print | Product List | Glossary On
Versions: 1 2 3 4 5 6 7 8 9 10 11 12 13 14 15 16 17 18 19 20 21 22 23 24 25 26 27 28 29 30 31
000
FTAK31 PANC 020542
TAFABE
TAF
PABE 020542Z 0206/0306 22010G20KT 6SM -SHRA BR FEW008 BKN012 OVC020
      TEMPO 0206/0210 BKN008
     FM021300 26008KT 5SM BR OVC008
     FM022000 29006KT P6SM VCSH SCT005 BKN012 OVC025=

USA.gov is the U.S. government's official web portal to all federal, state and local government web resources and services.